QPF
0.02 0.02 0.02 0.02 0.02 0.02 0.01 0.01 0.02 0.03 0.02 0.02 0.02 0.03 0.03 0.03 0.03 0.03 0.02 0.02 0.03 0.03 0.04 0.05 0.05 0.06 0.06 0.06 0.07 0.06 0.05 0.04 0.05 0.06 0.07 0.08 0.08 0.09
0.01 0.01 0.02 0.01 0.01 0.01 0.01 0.01 0.02 0.03 0.02 0.01 0.02 0.02 0.03 0.03 0.03 0.03 0.03 0.03 0.02 0.02 0.03 0.03 0.04 0.05 0.05 0.05 0.05 0.05 0.05 0.03 0.04 0.05 0.06 0.06 0.08 0.09
0.02 0.01 0.01 0.01 0.01 0.01 0.01 0.01 0.02 0.03 0.03 0.02 0.01 0.02 0.03 0.03 0.03 0.03 0.03 0.02 0.03 0.03 0.02 0.02 0.03 0.04 0.04 0.04 0.05 0.04 0.04 0.03 0.03 0.03 0.05 0.06 0.07 0.08
0.02 0.01 0.01 0.01 0.01 0.01 0.01 0.01 0.02 0.03 0.03 0.02 0.02 0.02 0.03 0.04 0.04 0.03 0.03 0.03 0.03 0.03 0.03 0.03 0.03 0.03 0.03 0.04 0.04 0.04 0.03 0.03 0.02 0.03 0.04 0.05 0.06 0.06
0.01 0.02 0.01 0.01 0.01 0.01 0.01 0.02 0.02 0.03 0.03 0.03 0.02 0.03 0.04 0.05 0.04 0.04 0.03 0.03 0.04 0.03 0.04 0.04 0.04 0.03 0.03 0.03 0.04 0.04 0.03 0.02 0.02 0.03 0.03 0.04 0.04 0.04
0.01 0.01 0.01 0.01 0.01 0.01 0.02 0.02 0.03 0.04 0.04 0.03 0.03 0.03 0.05 0.05 0.04 0.04 0.04 0.04 0.04 0.04 0.04 0.04 0.05 0.04 0.03 0.03 0.03 0.04 0.03 0.02 0.02 0.03 0.03 0.03 0.03 0.03
0.01 0.01 0.01 0.01 0.01 0.02 0.03 0.03 0.03 0.04 0.05 0.04 0.03 0.04 0.04 0.05 0.04 0.04 0.05 0.05 0.04 0.04 0.03 0.04 0.04 0.04 0.03 0.03 0.03 0.04 0.04 0.03 0.03 0.03 0.03 0.02 0.02 0.02
0.01 0.01 0.01 0.01 0.02 0.03 0.03 0.03 0.03 0.04 0.05 0.05 0.04 0.05 0.06 0.06 0.06 0.07 0.07 0.05 0.05 0.05 0.04 0.04 0.04 0.05 0.04 0.03 0.03 0.04 0.05 0.04 0.04 0.04 0.03 0.03 0.02 0.02
0.01 0.02 0.02 0.02 0.02 0.03 0.03 0.03 0.03 0.04 0.04 0.04 0.05 0.06 0.07 0.07 0.08 0.07 0.05 0.05 0.06 0.05 0.04 0.05 0.05 0.05 0.05 0.05 0.05 0.05 0.05 0.05 0.05 0.05 0.04 0.04 0.03 0.03
0.02 0.02 0.02 0.02 0.02 0.03 0.03 0.03 0.04 0.04 0.04 0.04 0.04 0.05 0.06 0.06 0.06 0.05 0.04 0.05 0.06 0.05 0.03 0.04 0.04 0.05 0.05 0.06 0.07 0.08 0.08 0.07 0.08 0.07 0.06 0.05 0.05 0.05
0.02 0.02 0.02 0.02 0.03 0.04 0.04 0.05 0.05 0.05 0.04 0.04 0.04 0.05 0.06 0.05 0.04 0.04 0.05 0.05 0.06 0.06 0.04 0.04 0.04 0.05 0.05 0.06 0.08 0.09 0.09 0.09 0.10 0.09 0.08 0.07 0.06 0.05
0.02 0.03 0.03 0.04 0.04 0.05 0.04 0.04 0.04 0.05 0.04 0.04 0.03 0.04 0.06 0.06 0.05 0.04 0.04 0.05 0.05 0.05 0.04 0.04 0.04 0.04 0.05 0.06 0.07 0.09 0.10 0.11 0.11 0.11 0.09 0.08 0.07 0.05
0.02 0.03 0.03 0.03 0.04 0.05 0.04 0.03 0.04 0.04 0.03 0.03 0.03 0.04 0.04 0.05 0.05 0.05 0.04 0.04 0.04 0.04 0.04 0.05 0.05 0.06 0.06 0.06 0.07 0.09 0.11 0.12 0.12 0.12 0.10 0.10 0.08 0.05
0.02 0.03 0.03 0.03 0.03 0.04 0.04 0.04 0.04 0.04 0.04 0.04 0.04 0.04 0.04 0.04 0.04 0.04 0.04 0.04 0.03 0.04 0.03 0.04 0.06 0.07 0.06 0.05 0.07 0.09 0.10 0.12 0.12 0.12 0.10 0.10 0.09 0.06
0.02 0.03 0.03 0.02 0.03 0.03 0.04 0.04 0.03 0.03 0.03 0.03 0.03 0.03 0.03 0.03 0.03 0.03 0.03 0.03 0.03 0.03 0.03 0.03 0.05 0.06 0.06 0.06 0.06 0.07 0.09 0.11 0.11 0.10 0.08 0.08 0.08 0.06
0.02 0.02 0.02 0.02 0.02 0.03 0.03 0.03 0.02 0.02 0.02 0.03 0.02 0.02 0.02 0.02 0.02 0.02 0.02 0.02 0.03 0.03 0.03 0.03 0.04 0.05 0.06 0.06 0.06 0.07 0.07 0.09 0.09 0.08 0.06 0.06 0.05 0.04
0.02 0.02 0.02 0.02 0.02 0.02 0.02 0.02 0.01 0.02 0.03 0.03 0.02 0.03 0.03 0.02 0.02 0.02 0.02 0.02 0.02 0.02 0.02 0.03 0.03 0.04 0.04 0.05 0.06 0.06 0.06 0.07 0.07 0.07 0.06 0.06 0.05 0.04
0.02 0.02 0.02 0.02 0.02 0.02 0.02 0.02 0.02 0.02 0.03 0.02 0.02 0.02 0.03 0.02 0.02 0.02 0.02 0.02 0.02 0.02 0.02 0.02 0.02 0.03 0.03 0.05 0.06 0.06 0.06 0.07 0.07 0.06 0.06 0.06 0.06 0.05
0.02 0.02 0.02 0.02 0.02 0.02 0.02 0.02 0.02 0.03 0.02 0.02 0.02 0.02 0.02 0.02 0.02 0.02 0.02 0.02 0.02 0.02 0.02 0.02 0.02 0.02 0.03 0.04 0.05 0.05 0.05 0.06 0.06 0.06 0.06 0.05 0.06 0.05
0.02 0.02 0.02 0.03 0.03 0.03 0.03 0.02 0.02 0.02 0.02 0.02 0.02 0.03 0.03 0.02 0.02 0.02 0.02 0.02 0.02 0.02 0.02 0.02 0.02 0.03 0.03 0.03 0.04 0.04 0.04 0.05 0.05 0.05 0.05 0.04 0.04 0.04
0.02 0.02 0.02 0.02 0.02 0.02 0.02 0.02 0.02 0.02 0.02 0.02 0.02 0.03 0.03 0.03 0.03 0.02 0.02 0.03 0.03 0.03 0.03 0.02 0.02 0.02 0.02 0.02 0.03 0.03 0.03 0.03 0.03 0.04 0.03 0.03 0.03 0.04
0.02 0.02 0.02 0.02 0.02 0.02 0.02 0.02 0.02 0.02 0.02 0.02 0.02 0.02 0.02 0.02 0.02 0.02 0.02 0.02 0.02 0.03 0.03 0.02 0.02 0.02 0.03 0.03 0.03 0.02 0.02 0.02 0.02 0.02 0.02 0.03 0.04 0.04
0.02 0.02 0.02 0.02 0.02 0.02 0.02 0.02 0.02 0.02 0.02 0.02 0.02 0.02 0.02 0.02 0.02 0.02 0.02 0.03 0.03 0.03 0.02 0.02 0.02 0.02 0.03 0.03 0.03 0.02 0.02 0.02 0.02 0.02 0.03 0.03 0.02 0.02
MSLP
1021.74 1020.92 1019.99 1018.95 1017.79 1016.51 1015.13 1013.68 1012.17 1010.63 1009.10 1007.59 1006.14 1004.75 1003.47 1002.31 1001.29 1000.42 999.71 999.14 998.71 998.38 998.13 997.93 997.74 997.58 997.44 997.35 997.37 997.54 997.91 998.50 999.33 1000.37 1001.59 1002.92 1004.28 1005.61
1021.30 1020.46 1019.51 1018.47 1017.30 1016.03 1014.65 1013.19 1011.66 1010.08 1008.46 1006.84 1005.24 1003.69 1002.22 1000.88 999.68 998.67 997.86 997.24 996.82 996.56 996.42 996.35 996.32 996.31 996.32 996.36 996.48 996.72 997.13 997.75 998.60 999.67 1000.92 1002.30 1003.72 1005.10
1020.82 1019.95 1019.00 1017.95 1016.79 1015.54 1014.19 1012.74 1011.21 1009.60 1007.93 1006.20 1004.45 1002.72 1001.04 999.48 998.08 996.89 995.95 995.26 994.83 994.62 994.59 994.67 994.82 994.99 995.18 995.38 995.63 995.96 996.44 997.11 997.99 999.08 1000.36 1001.77 1003.23 1004.67
1020.38 1019.48 1018.51 1017.46 1016.32 1015.09 1013.77 1012.36 1010.84 1009.22 1007.48 1005.66 1003.76 1001.83 999.93 998.13 996.51 995.12 994.02 993.24 992.79 992.63 992.70 992.94 993.28 993.66 994.05 994.43 994.84 995.30 995.87 996.60 997.52 998.64 999.94 1001.38 1002.88 1004.36
1020.02 1019.10 1018.10 1017.05 1015.92 1014.72 1013.44 1012.06 1010.55 1008.91 1007.12 1005.19 1003.14 1001.02 998.90 996.87 995.01 993.42 992.16 991.28 990.80 990.67 990.85 991.24 991.77 992.36 992.97 993.55 994.14 994.75 995.43 996.24 997.22 998.38 999.71 1001.17 1002.70 1004.22
1019.77 1018.81 1017.80 1016.74 1015.63 1014.45 1013.19 1011.82 1010.32 1008.65 1006.81 1004.78 1002.59 1000.30 997.98 995.73 993.66 991.89 990.48 989.51 988.99 988.89 989.15 989.68 990.39 991.18 991.99 992.78 993.55 994.31 995.13 996.04 997.09 998.30 999.67 1001.15 1002.71 1004.25
1019.59 1018.61 1017.59 1016.52 1015.40 1014.24 1012.99 1011.63 1010.13 1008.44 1006.55 1004.44 1002.14 999.71 997.23 994.81 992.58 990.65 989.12 988.06 987.51 987.43 987.75 988.38 989.23 990.19 991.18 992.15 993.09 994.01 994.95 995.97 997.10 998.37 999.79 1001.31 1002.89 1004.45
1019.46 1018.46 1017.42 1016.35 1015.23 1014.07 1012.82 1011.47 1009.96 1008.26 1006.34 1004.19 1001.82 999.31 996.73 994.21 991.87 989.85 988.23 987.11 986.52 986.43 986.78 987.47 988.41 989.48 990.60 991.70 992.77 993.82 994.88 996.00 997.22 998.56 1000.02 1001.59 1003.20 1004.79
1019.33 1018.33 1017.28 1016.19 1015.08 1013.91 1012.68 1011.33 1009.83 1008.14 1006.23 1004.07 1001.71 999.18 996.59 994.04 991.67 989.60 987.94 986.77 986.14 986.02 986.35 987.05 988.00 989.11 990.28 991.46 992.61 993.75 994.90 996.10 997.39 998.80 1000.32 1001.93 1003.58 1005.19
1019.19 1018.19 1017.13 1016.05 1014.94 1013.78 1012.56 1011.24 1009.77 1008.12 1006.26 1004.17 1001.87 999.41 996.88 994.38 992.05 990.00 988.34 987.14 986.47 986.28 986.55 987.17 988.07 989.13 990.28 991.45 992.63 993.80 995.01 996.27 997.62 999.08 1000.65 1002.31 1003.99 1005.63
1019.04 1018.04 1017.00 1015.93 1014.83 1013.70 1012.51 1011.23 1009.83 1008.26 1006.50 1004.53 1002.36 1000.03 997.64 995.27 993.04 991.05 989.42 988.22 987.48 987.21 987.36 987.86 988.63 989.58 990.63 991.73 992.87 994.03 995.24 996.52 997.91 999.41 1001.01 1002.70 1004.41 1006.09
1018.91 1017.94 1016.92 1015.88 1014.81 1013.72 1012.58 1011.38 1010.06 1008.61 1006.98 1005.17 1003.18 1001.05 998.85 996.65 994.57 992.69 991.11 989.91 989.12 988.75 988.75 989.09 989.68 990.46 991.36 992.34 993.38 994.48 995.66 996.93 998.32 999.84 1001.46 1003.16 1004.89 1006.58
1018.84 1017.90 1016.93 1015.93 1014.91 1013.88 1012.82 1011.70 1010.50 1009.18 1007.72 1006.10 1004.32 1002.41 1000.43 998.44 996.53 994.78 993.28 992.08 991.25 990.77 990.63 990.78 991.18 991.77 992.50 993.33 994.25 995.26 996.37 997.60 998.97 1000.46 1002.07 1003.76 1005.48 1007.16
1018.87 1017.98 1017.06 1016.12 1015.17 1014.22 1013.24 1012.23 1011.15 1009.98 1008.69 1007.27 1005.71 1004.03 1002.27 1000.50 998.77 997.16 995.75 994.59 993.73 993.16 992.89 992.88 993.10 993.50 994.06 994.74 995.53 996.44 997.47 998.63 999.94 1001.38 1002.94 1004.58 1006.25 1007.89
1018.99 1018.16 1017.31 1016.45 1015.59 1014.72 1013.84 1012.94 1011.98 1010.96 1009.83 1008.60 1007.25 1005.79 1004.25 1002.68 1001.14 999.68 998.38 997.27 996.40 995.78 995.42 995.29 995.37 995.62 996.03 996.58 997.26 998.06 999.00 1000.08 1001.30 1002.66 1004.14 1005.69 1007.27 1008.83
1019.19 1018.44 1017.68 1016.91 1016.13 1015.36 1014.58 1013.78 1012.95 1012.06 1011.09 1010.02 1008.85 1007.58 1006.24 1004.87 1003.50 1002.20 1001.01 999.98 999.14 998.52 998.11 997.92 997.91 998.07 998.38 998.83 999.41 1000.13 1000.97 1001.96 1003.08 1004.33 1005.68 1007.11 1008.57 1010.00
1019.44 1018.77 1018.10 1017.42 1016.75 1016.07 1015.40 1014.71 1013.99 1013.22 1012.38 1011.45 1010.44 1009.34 1008.17 1006.97 1005.77 1004.62 1003.55 1002.62 1001.86 1001.28 1000.88 1000.67 1000.63 1000.75 1001.01 1001.40 1001.92 1002.55 1003.31 1004.19 1005.20 1006.31 1007.52 1008.79 1010.09 1011.37
1019.69 1019.11 1018.53 1017.96 1017.38 1016.81 1016.24 1015.65 1015.03 1014.37 1013.64 1012.84 1011.96 1011.01 1009.99 1008.95 1007.90 1006.89 1005.96 1005.15 1004.48 1003.98 1003.64 1003.46 1003.44 1003.55 1003.80 1004.15 1004.62 1005.19 1005.86 1006.64 1007.52 1008.49 1009.54 1010.64 1011.76 1012.87
1019.92 1019.43 1018.94 1018.47 1017.99 1017.53 1017.05 1016.56 1016.05 1015.48 1014.86 1014.17 1013.41 1012.58 1011.70 1010.79 1009.88 1009.02 1008.22 1007.53 1006.98 1006.56 1006.30 1006.18 1006.20 1006.33 1006.58 1006.91 1007.34 1007.85 1008.44 1009.11 1009.86 1010.68 1011.57 1012.50 1013.45 1014.38
1020.12 1019.71 1019.31 1018.93 1018.55 1018.19 1017.81 1017.42 1017.00 1016.53 1016.01 1015.42 1014.77 1014.05 1013.29 1012.51 1011.74 1011.01 1010.34 1009.77 1009.32 1009.00 1008.81 1008.75 1008.80 1008.96 1009.20 1009.52 1009.90 1010.35 1010.85 1011.42 1012.04 1012.73 1013.46 1014.24 1015.03 1015.82
1020.31 1019.97 1019.65 1019.35 1019.06 1018.79 1018.51 1018.21 1017.88 1017.51 1017.08 1016.59 1016.04 1015.44 1014.80 1014.14 1013.49 1012.87 1012.32 1011.85 1011.50 1011.25 1011.12 1011.10 1011.18 1011.34 1011.56 1011.85 1012.18 1012.55 1012.97 1013.43 1013.95 1014.51 1015.11 1015.76 1016.42 1017.08
1020.51 1020.23 1019.97 1019.74 1019.53 1019.33 1019.13 1018.92 1018.68 1018.40 1018.07 1017.68 1017.23 1016.74 1016.20 1015.66 1015.11 1014.60 1014.15 1013.77 1013.48 1013.29 1013.20 1013.20 1013.27 1013.41 1013.61 1013.84 1014.11 1014.41 1014.75 1015.12 1015.53 1015.99 1016.48 1017.02 1017.59 1018.16
1020.74 1020.50 1020.29 1020.11 1019.96 1019.83 1019.69 1019.55 1019.39 1019.20 1018.95 1018.66 1018.31 1017.92 1017.49 1017.05 1016.60 1016.19 1015.81 1015.50 1015.27 1015.11 1015.03 1015.03 1015.08 1015.19 1015.34 1015.52 1015.72 1015.95 1016.20 1016.49 1016.82 1017.19 1017.61 1018.07 1018.55 1019.06
Thickness
5441 5441 5441 5442 5442 5444 5445 5447 5448 5452 5457 5463 5465 5469 5471 5474 5477 5479 5482 5486 5490 5493 5496 5499 5501 5504 5507 5510 5512 5514 5515 5517 5519 5521 5522 5523 5523 5524
5430 5430 5430 5431 5432 5433 5435 5437 5439 5441 5444 5451 5454 5457 5460 5463 5466 5468 5470 5474 5477 5480 5484 5487 5489 5492 5495 5497 5499 5501 5503 5505 5507 5508 5510 5511 5511 5513
5419 5419 5420 5421 5422 5423 5425 5427 5429 5431 5433 5440 5443 5446 5449 5452 5455 5457 5459 5462 5465 5468 5471 5474 5477 5481 5483 5485 5487 5489 5491 5493 5495 5496 5497 5499 5499 5500
5408 5409 5410 5411 5412 5413 5415 5417 5419 5421 5423 5427 5432 5435 5438 5441 5444 5446 5449 5452 5454 5457 5459 5462 5466 5469 5471 5474 5476 5477 5479 5481 5483 5484 5486 5487 5488 5488
5399 5399 5400 5402 5403 5404 5406 5408 5410 5413 5415 5417 5422 5425 5427 5430 5432 5435 5438 5441 5443 5446 5448 5451 5454 5457 5460 5462 5464 5466 5468 5470 5472 5473 5473 5474 5475 5475
5390 5390 5391 5393 5394 5396 5398 5399 5401 5403 5405 5408 5412 5414 5416 5419 5421 5424 5426 5429 5432 5435 5437 5439 5443 5446 5449 5451 5453 5454 5456 5458 5459 5461 5462 5462 5463 5463
5381 5382 5383 5384 5386 5388 5390 5391 5392 5394 5396 5398 5402 5404 5406 5408 5411 5412 5414 5416 5419 5422 5425 5428 5431 5435 5437 5439 5441 5443 5445 5447 5448 5449 5450 5450 5451 5451
5373 5374 5375 5376 5378 5380 5383 5385 5386 5387 5388 5390 5392 5394 5396 5399 5400 5402 5403 5405 5407 5410 5412 5415 5419 5422 5425 5428 5430 5432 5433 5435 5437 5437 5438 5439 5439 5440
5366 5366 5367 5369 5370 5372 5374 5377 5379 5381 5382 5382 5383 5385 5388 5390 5392 5393 5394 5395 5396 5399 5400 5404 5408 5410 5413 5416 5418 5420 5422 5423 5424 5425 5426 5427 5427 5428
5359 5360 5360 5362 5364 5365 5367 5369 5371 5374 5375 5376 5377 5379 5381 5382 5383 5384 5385 5386 5387 5388 5390 5392 5396 5399 5402 5404 5406 5408 5410 5411 5412 5414 5415 5415 5416 5417
5354 5355 5356 5357 5359 5360 5361 5363 5365 5367 5368 5370 5371 5372 5373 5375 5375 5375 5376 5377 5378 5379 5380 5382 5385 5387 5390 5392 5394 5396 5397 5399 5401 5402 5403 5404 5405 5406
5349 5351 5352 5353 5355 5356 5357 5358 5360 5361 5362 5364 5364 5366 5366 5367 5367 5368 5368 5369 5368 5368 5371 5371 5372 5373 5376 5379 5381 5383 5385 5387 5389 5391 5392 5393 5394 5395
5344 5346 5348 5349 5351 5352 5353 5354 5356 5356 5357 5357 5357 5358 5358 5359 5360 5360 5360 5360 5360 5359 5361 5361 5361 5362 5363 5366 5369 5371 5373 5375 5376 5378 5380 5382 5383 5384
5339 5341 5343 5345 5346 5348 5349 5350 5351 5351 5350 5351 5351 5351 5351 5352 5352 5352 5352 5352 5352 5352 5352 5352 5353 5354 5354 5355 5358 5361 5362 5363 5365 5367 5369 5371 5372 5373
5334 5337 5338 5340 5341 5342 5344 5345 5345 5345 5345 5345 5345 5345 5345 5345 5345 5345 5345 5345 5344 5344 5345 5345 5346 5346 5347 5347 5349 5350 5352 5355 5356 5358 5359 5361 5362 5364
5329 5331 5332 5334 5335 5336 5338 5339 5339 5339 5339 5339 5339 5338 5338 5338 5338 5338 5338 5338 5337 5337 5337 5338 5340 5340 5341 5341 5342 5343 5345 5346 5348 5350 5351 5353 5354 5356
5323 5324 5325 5326 5328 5330 5331 5332 5333 5333 5333 5333 5332 5333 5333 5333 5333 5333 5332 5332 5331 5331 5332 5333 5333 5334 5334 5335 5336 5337 5338 5340 5341 5343 5344 5346 5348 5349
5317 5318 5319 5321 5322 5324 5325 5325 5326 5326 5326 5326 5326 5326 5327 5327 5327 5326 5326 5326 5325 5325 5326 5327 5327 5328 5328 5329 5330 5330 5331 5333 5334 5335 5337 5339 5341 5342
5311 5312 5313 5315 5316 5317 5318 5318 5319 5319 5320 5320 5320 5320 5321 5321 5321 5321 5320 5320 5320 5320 5320 5321 5321 5321 5322 5323 5322 5324 5325 5327 5328 5330 5331 5333 5334 5336
5305 5306 5307 5309 5310 5311 5311 5312 5312 5313 5314 5314 5314 5314 5314 5315 5316 5316 5316 5315 5315 5315 5316 5316 5316 5316 5316 5317 5317 5318 5320 5322 5324 5325 5326 5327 5328 5330
5298 5299 5301 5303 5304 5305 5306 5306 5307 5307 5308 5308 5309 5309 5309 5310 5310 5310 5311 5311 5311 5311 5311 5311 5311 5312 5312 5312 5313 5314 5316 5317 5319 5320 5321 5323 5324 5326
5291 5293 5295 5297 5298 5299 5300 5301 5302 5303 5303 5304 5304 5304 5305 5305 5305 5306 5306 5306 5307 5307 5307 5307 5308 5309 5310 5311 5311 5311 5312 5313 5315 5316 5318 5319 5319 5321
5285 5287 5289 5291 5293 5294 5296 5297 5298 5298 5299 5299 5299 5300 5300 5301 5301 5302 5302 5302 5302 5303 5303 5304 5305 5306 5307 5307 5307 5307 5308 5309 5311 5313 5314 5316 5317 5318